Covington, KY

5:41 PM EST on January 22, 2018 (GMT -0500)
Cincinnati-Northern KY International

Weather History for KCVG - September, 2014

Change the Weather History Date:

Thursday, September 11, 2014

  Actual Average Record
Temperature  
Mean Temperature 65 °F 70 °F  
Max Temperature 73 °F 80 °F 96 °F (1933)
Min Temperature 57 °F 59 °F 40 °F (1993)
Degree Days  
Heating Degree Days 0 1  
Month to date heating degree days 0 5  
Since 1 July heating degree days 5 5  
Cooling Degree Days 0 5  
Month to date cooling degree days 87 75  
Year to date cooling degree days 1033 1043  
Growing Degree Days 16 (Base 50)    
Moisture  
Dew Point 63 °F    
Average Humidity 79    
Maximum Humidity 97    
Minimum Humidity 61    
Precipitation  
Precipitation 0.85 in 0.10 in 1.75 in (1975)
Month to date precipitation 2.98 0.97  
Year to date precipitation 33.44 30.76  
Snow  
Snow 0.00 in 0.00 in 0.00 in ()
Month to date snowfall 0.0 0.0  
Since 1 July snowfall 0.0 0.0  
Since 1 September snowfall 0.0 0.0  
Snow Depth 0.00 in    
Sea Level Pressure  
Sea Level Pressure 29.95 in    
Wind  
Wind Speed 10 mph (WNW)    
Max Wind Speed 17 mph    
Max Gust Speed 22 mph    
Visibility 7 miles    
Events Fog , Rain , Thunderstorm    
T = Trace of Precipitation, MM = Missing Value Source: NWS Daily Summary

Daily Weather History Graph

Daily Weather History Graph

Search for Another Location

Airport or City:

Trip Planner

Search our weather history database for the weather conditions in past years. The results will help you decide how hot, cold, wet, or windy it might be!

Date:

Astronomy

Sep. 11, 2014 Rise Set
Actual Time 7:16 AM EDT 7:53 PM EDT
Civil Twilight 6:49 AM EDT 8:20 PM EDT
Nautical Twilight 6:17 AM EDT 8:51 PM EDT
Astronomical Twilight 5:44 AM EDT 9:24 PM EDT
Moon 9:33 PM EDT (9/11) 10:10 AM EDT (9/11)
Length of Visible Light 13h 30m
Length of Day
12h 37m
Waning Gibbous, 91% of the Moon is Illuminated
Sep 11
Waning Gibbous
Sep 15
Last Quarter
Sep 24
New
Oct 1
First Quarter
Oct 8
Full

Hourly Weather History & Observations

Time (EDT) Temp. Dew Point Humidity Pressure Visibility Wind Dir Wind Speed Gust Speed Precip Events Conditions
12:42 AM 73.4 °F 69.8 °F 88% 29.88 in 0.8 mi West 29.9 mph 46.0 mph 0.04 in Rain Heavy Rain
12:49 AM 69.8 °F 66.2 °F 88% 29.88 in 0.2 mi West 11.5 mph 43.7 mph 0.45 in Fog , Rain , Thunderstorm Heavy Thunderstorms and Rain
12:52 AM 69.1 °F 66.9 °F 93% 29.86 in 0.5 mi WSW 10.4 mph - 0.61 in Fog , Rain , Thunderstorm Heavy Thunderstorms and Rain
1:15 AM 69.8 °F 68.0 °F 94% 29.83 in 4.0 mi SSW 10.4 mph - 0.37 in Rain , Thunderstorm Light Thunderstorms and Rain
1:27 AM 69.8 °F 68.0 °F 94% 29.84 in 5.0 mi SSW 8.1 mph - 0.39 in Rain Rain
1:52 AM 70.0 °F 68.0 °F 93% 29.82 in 5.0 mi SW 10.4 mph - 0.44 in Rain Rain
2:52 AM 70.0 °F 68.0 °F 93% 29.83 in 4.0 mi SSW 8.1 mph - 0.11 in Rain Rain
3:20 AM 69.8 °F 68.0 °F 94% 29.85 in 4.0 mi SW 5.8 mph - 0.13 in Rain Heavy Rain
3:52 AM 70.0 °F 68.0 °F 93% 29.83 in 7.0 mi SW 6.9 mph - 0.22 in Rain Light Rain
4:19 AM 69.8 °F 68.0 °F 94% 29.86 in 1.5 mi SSW 8.1 mph - 0.12 in Rain Heavy Rain
4:39 AM 69.8 °F 68.0 °F 94% 29.86 in 6.0 mi SW 6.9 mph - 0.24 in Rain Light Rain
4:52 AM 70.0 °F 68.0 °F 93% 29.83 in 10.0 mi SW 8.1 mph - 0.25 in Rain Light Rain
5:13 AM 69.8 °F 68.0 °F 94% 29.88 in 6.0 mi WSW 4.6 mph - 0.00 in Rain Light Rain
5:52 AM 70.0 °F 68.0 °F 93% 29.86 in 10.0 mi SW 6.9 mph - 0.03 in   Overcast
6:30 AM 69.8 °F 69.8 °F 100% 29.91 in 2.5 mi West 4.6 mph - 0.01 in Rain Light Rain
6:42 AM 69.8 °F 68.0 °F 94% 29.91 in 4.0 mi West 5.8 mph - 0.02 in Rain Light Rain
6:52 AM 70.0 °F 68.0 °F 93% 29.89 in 4.0 mi WNW 10.4 mph - 0.02 in   Overcast
7:11 AM 69.8 °F 66.2 °F 88% 29.92 in 9.0 mi NW 9.2 mph 19.6 mph 0.00 in   Overcast
7:44 AM 68.0 °F 66.2 °F 94% 29.94 in 3.0 mi NNW 12.7 mph - 0.00 in   Drizzle
7:52 AM 66.9 °F 64.9 °F 93% 29.92 in 3.0 mi NNW 15.0 mph - 0.00 in   Drizzle
8:21 AM 66.2 °F 64.4 °F 94% 29.96 in 2.0 mi NNW 12.7 mph - 0.00 in   Drizzle
8:52 AM 66.0 °F 64.9 °F 96% 29.95 in 2.0 mi North 8.1 mph - 0.00 in   Drizzle
9:00 AM 66.2 °F 64.4 °F 94% 29.97 in 5.0 mi NNW 9.2 mph - 0.00 in   Overcast
9:52 AM 64.9 °F 63.0 °F 93% 29.98 in 7.0 mi NNW 12.7 mph - 0.00 in   Overcast
10:52 AM 66.0 °F 64.0 °F 93% 29.99 in 10.0 mi North 11.5 mph - N/A   Overcast
11:52 AM 64.9 °F 60.1 °F 84% 30.01 in 10.0 mi NNW 10.4 mph - N/A   Overcast
12:52 PM 64.9 °F 60.1 °F 84% 30.02 in 10.0 mi North 9.2 mph - N/A   Overcast
1:52 PM 64.9 °F 57.9 °F 78% 30.03 in 10.0 mi North 5.8 mph - N/A   Overcast
2:00 PM 66.2 °F 57.2 °F 73% 30.06 in 10.0 mi NW 5.8 mph - N/A   Overcast
2:52 PM 68.0 °F 57.9 °F 70% 30.03 in 10.0 mi Variable 5.8 mph - N/A   Mostly Cloudy
3:14 PM 71.6 °F 60.8 °F 69% 30.04 in 10.0 mi NNW 9.2 mph - N/A   Mostly Cloudy
3:52 PM 71.6 °F 57.2 °F 60% 30.05 in 10.0 mi NNW 9.2 mph 18.4 mph N/A   Mostly Cloudy
4:52 PM 72.0 °F 57.9 °F 61% 30.02 in 10.0 mi NNW 12.7 mph - N/A   Mostly Cloudy
5:52 PM 69.1 °F 57.9 °F 68% 30.04 in 10.0 mi North 11.5 mph - N/A   Mostly Cloudy
6:52 PM 66.0 °F 55.9 °F 70% 30.06 in 10.0 mi North 15.0 mph - N/A   Mostly Cloudy
7:52 PM 63.0 °F 55.0 °F 75% 30.07 in 10.0 mi North 9.2 mph - N/A   Scattered Clouds
8:52 PM 61.0 °F 55.0 °F 81% 30.08 in 10.0 mi NNW 10.4 mph - N/A   Partly Cloudy
9:52 PM 60.1 °F 54.0 °F 80% 30.11 in 10.0 mi NNW 11.5 mph - N/A   Scattered Clouds
10:52 PM 60.1 °F 54.0 °F 80% 30.13 in 10.0 mi North 9.2 mph - N/A   Mostly Cloudy
11:52 PM 59.0 °F 53.1 °F 81% 30.14 in 10.0 mi North 6.9 mph - N/A   Scattered Clouds